Weather in Riga

Latvia     56°56′48″N   24°06′21″E
temp.,
°C
wind,
m/s
gust,
m/s
humid.,
%
clouds,
%
prec.,
mm/h
press.,
hPa
HPBL,
m
7 may, fri
fri700:00+5sw71291100 0.1 1000991
03:00+5sw61189100 0.4 10001038
06:00+5sw5118899 0.3 1001792
09:00+5wsw598899 0.6 1002857
12:00+7w3573100 0.3 1004851
15:00+8wsw257299 1.3 1004895
18:00+8w247499 0.9 1003644
21:00+4n4694100 1.4 1005220
8 may, sat
sat800:00+4nw369072 0.0 1005351
03:00+3wnw588555 0.1 1006513
06:00+2wnw698819 0.1 1008609
09:00+4wnw69796 0.1 1009849
12:00+7nnw59603 0.0 10101115
15:00+7nnw58482 0.0 1012797
18:00+7n35482 0.0 1013596
21:00+5sw11605 0.0 101423
9 may, sun
sun900:00+4ssw23595 0.0 101545
03:00+2ssw37851 0.0 1016165
06:00+2ssw499481 0.0 1017206
09:00+6ssw597199 0.0 1018478
12:00+10ssw575191 0.0 1018964
15:00+12ssw4745100 0.0 10181501
18:00+11s51063100 0.1 1017992
21:00+11s71665100 0.2 1016660
10 may, mon
mon1000:00+11ssw61475100 0.0 1017428
03:00+11s61379100 0.0 1018361
06:00+9s6138146 0.0 1019306
09:00+13s6126812 0.0 1020372
12:00+17s711547 0.0 1020673
15:00+19s8124983 0.0 1020878
18:00+18s7135543 0.0 1019843
21:00+16sse71566100 0.0 1018641
11 may, tue
tue1100:00+14sse7156945 0.0 1019502
03:00+12sse61473100 0.0 1019411
06:00+11sse61476100 0.0 1019392
09:00+13sse61267100 0.0 1020430
12:00+17s7115261 0.0 1020677
15:00+20sse711450 0.0 1019884
18:00+19sse713504 0.0 1019787
21:00+16sse613600 0.0 1019605